[[{"header":{"parameterUnit":"m.s-1","parameterCategory":1,"la1":30.2991,"la2":30.254,"lo1":-89.0895,"lo2":-89.0444,"dy":0.0017,"dx":0.0017,"nx":28,"ny":28,"refTime":"2023-08-29T03:00:00:Z","depth":0,"parameterNumber":2,"parameterNumberName":"U-component_of_WINDS"},"data":[0,0,0,0,0,0,0,0,0,0,0,0,0,0,0,0,0,0,0,0,0,0,0,0,0,0,0,0,0,0,0,0,0,0,0,0,0,0,0,0,0,0,0,0,0,0,0,0,0,0,0,0,0,0,0,0,0,0,-0.6333,-0.6334,0,-0.6437,-0.6439,-0.644,-0.6433,-0.6431,-0.643,-0.6428,-0.6536,-0.654,-0.6544,0,0,0,0,0,0,0,0,0,0,0,0,0,-0.6128,-0.6132,-0.6333,-0.6334,-0.6335,-0.6437,-0.6439,-0.644,-0.6433,-0.6431,-0.6429,-0.6428,-0.6534,-0.6539,-0.6545,0,0,0,0,0,0,0,0,0,0,0,0,0,-0.6223,-0.6133,-0.6333,-0.6344,-0.6346,-0.6437,-0.6439,-0.644,-0.6434,-0.6431,-0.6429,-0.6427,-0.6533,-0.6539,-0.6545,-0.6631,0,0,-0.6565,-0.6568,0,0,0,0,0,0,0,0,-0.6218,-0.6231,-0.6341,-0.6344,-0.6346,-0.642,-0.6406,-0.6504,-0.6434,-0.64,-0.6428,-0.6426,-0.6499,-0.6508,-0.6533,-0.6636,-0.6641,-0.6566,-0.6569,-0.6572,-0.6574,0,0,0,0,0,0,0,-0.6211,-0.6226,-0.6374,-0.6343,-0.6346,-0.6345,-0.6355,-0.6424,-0.6461,-0.6403,-0.6403,-0.6415,-0.65,-0.6527,-0.6535,-0.6642,-0.6565,-0.6571,-0.6575,-0.6578,-0.6822,-0.6825,0,0,0,0,0,0,-0.6202,-0.6221,-0.6371,-0.6377,-0.6275,-0.635,-0.6362,-0.6398,-0.6461,-0.6468,-0.6417,-0.6415,-0.6517,-0.6528,-0.6539,-0.6644,-0.6572,-0.6578,-0.6582,-0.6819,-0.6823,-0.6826,0,0,0,0,0,0,-0.6198,-0.6215,-0.6367,-0.6299,-0.6318,-0.6356,-0.6397,-0.6402,-0.6428,-0.6471,-0.6478,-0.6438,-0.6515,-0.653,-0.6608,-0.6648,-0.6581,-0.6587,-0.6816,-0.682,-0.6824,-0.6854,0,0,0,0,0,0,-0.6192,-0.6214,-0.6247,-0.63,-0.6322,-0.6434,-0.6399,-0.6405,-0.6439,-0.6437,-0.6492,-0.6499,-0.6515,-0.6599,-0.6615,-0.6655,-0.6592,-0.6813,-0.6818,-0.6823,-0.685,-0.6859,-0.6866,0,0,0,0,0,-0.6185,-0.6251,-0.6248,-0.6267,-0.6364,-0.6436,-0.6449,-0.6465,-0.6443,-0.6476,-0.6504,-0.6497,-0.6641,-0.6607,-0.6625,-0.6668,-0.6811,-0.6817,-0.6822,-0.6846,-0.6857,-0.6866,0,0,0,0,0,0,-0.6201,-0.6258,-0.6256,-0.6341,-0.6384,-0.6435,-0.6478,-0.6476,-0.6526,-0.6522,-0.654,-0.6553,-0.6632,-0.6658,-0.6619,-0.6754,-0.6723,-0.6733,-0.6735,-0.6745,-0.6753,-0.6745,-0.6597,0,0,0,0,0,-0.6215,-0.6269,-0.6316,-0.6387,-0.6409,-0.6439,-0.6472,-0.6481,-0.6526,-0.6544,-0.6577,-0.6621,-0.6676,-0.6712,-0.6765,-0.6854,-0.6866,-0.6892,-0.69,-0.6907,-0.6915,-0.6964,-0.6976,-0.6845,-0.6845,-0.6845,0,0,-0.6244,-0.6281,-0.6315,-0.6391,-0.6425,-0.6481,-0.6455,-0.6515,-0.6557,-0.6553,-0.6629,-0.6655,-0.6706,-0.679,-0.6828,-0.6814,-0.6954,-0.6914,-0.6919,-0.6924,-0.6971,-0.6984,-0.6995,-0.6849,-0.6848,-0.6848,0,0,-0.6325,-0.6359,-0.6422,-0.6457,-0.6509,-0.6529,-0.6544,-0.6596,-0.6613,-0.669,-0.6688,-0.6738,-0.6833,-0.6869,-0.69,-0.6995,-0.6991,-0.7012,-0.7055,-0.7102,-0.7113,-0.7122,-0.7156,-0.7168,-0.702,-0.702,-0.702,0,-0.6354,-0.6438,-0.6454,-0.6515,-0.6549,-0.6549,-0.6613,-0.6646,-0.6713,-0.6736,-0.6719,-0.6838,-0.6872,-0.6964,-0.6988,-0.7013,-0.7031,-0.7006,-0.711,-0.7119,-0.7128,-0.7161,-0.7174,-0.7022,-0.7022,-0.7022,-0.7022,0,-0.6471,-0.653,-0.6574,-0.6639,-0.6678,-0.674,-0.6767,-0.6804,-0.681,-0.6832,-0.6911,-0.6952,-0.7013,-0.7036,-0.7042,-0.713,-0.7119,-0.7106,-0.7074,-0.7143,-0.7174,-0.7187,-0.7025,-0.7025,-0.7024,-0.7023,0,0,-0.6565,-0.6638,-0.6655,-0.6684,-0.6742,-0.6788,-0.685,-0.691,-0.6942,-0.6989,-0.7042,-0.7122,-0.711,-0.7145,-0.7156,-0.7197,-0.7271,-0.7179,-0.7181,-0.7195,-0.737,-0.738,-0.7394,-0.7269,-0.7271,-0.7273,-0.7366,0,-0.6652,-0.6762,-0.6779,-0.6877,-0.6931,-0.6932,-0.6987,-0.7028,-0.7051,-0.7101,-0.7126,-0.7182,-0.7162,-0.7183,-0.7225,-0.7253,-0.7306,-0.7247,-0.7319,-0.7321,-0.7306,-0.7411,-0.7421,-0.7506,-0.7378,-0.7381,-0.7382,0,-0.6767,-0.6817,-0.692,-0.6971,-0.6995,-0.7043,-0.71,-0.7148,-0.7195,-0.7209,-0.7248,-0.7254,-0.7319,-0.7285,-0.7375,-0.7335,-0.7365,-0.7384,-0.7387,-0.7394,-0.7355,-0.7421,-0.7534,-0.7547,-0.7401,-0.74,-0.7398,0,-0.6825,-0.6918,-0.6992,-0.7017,-0.7078,-0.7113,-0.714,-0.7185,-0.7221,-0.727,-0.7294,-0.735,-0.7381,-0.7426,-0.7447,-0.742,-0.7536,-0.7503,-0.7549,-0.7549,-0.7573,-0.7571,-0.7693,-0.7593,-0.7593,-0.7593,-0.7592,0,-0.692,-0.6983,-0.7019,-0.7064,-0.7135,-0.7154,-0.7224,-0.725,-0.7291,-0.7341,-0.7346,-0.7393,-0.7418,-0.7469,-0.7486,-0.7559,-0.7573,-0.7586,-0.759,-0.7586,-0.7584,-0.7606,-0.76,-0.7596,-0.7595,-0.7595,-0.7594,0,-0.6997,-0.7023,-0.7103,-0.7155,-0.717,-0.722,-0.7264,-0.7309,-0.7331,-0.7395,-0.7412,-0.7447,-0.7508,-0.7534,-0.7608,-0.762,-0.7703,-0.7702,-0.7687,-0.7688,-0.7733,-0.7728,-0.7873,-0.7893,-0.7779,-0.778,-0.7781,0,-0.7055,-0.7104,-0.7161,-0.7196,-0.7224,-0.7279,-0.7315,-0.7336,-0.7374,-0.7432,-0.747,-0.7531,-0.758,-0.7678,-0.771,-0.7768,-0.7769,-0.7815,-0.7777,-0.7772,-0.7769,-0.7766,-0.7771,-0.7822,-0.7823,-0.7824,-0.7825,0,-0.7157,-0.7168,-0.7219,-0.7277,-0.732,-0.7365,-0.741,-0.7438,-0.7466,-0.7508,-0.7571,-0.761,-0.7686,-0.7747,-0.7806,-0.7834,-0.7835,-0.7837,-0.785,-0.7847,-0.7836,-0.7842,-0.7706,-0.7833,-0.7832,-0.7832,-0.7831,-0.7831,-0.7226,-0.727,-0.7317,-0.7375,-0.7411,-0.7453,-0.7497,-0.7526,-0.7578,-0.7642,-0.7651,-0.7718,-0.7765,-0.7845,-0.7876,-0.7929,-0.7917,-0.7937,-0.7942,-0.7946,-0.7949,-0.7827,-0.794,-0.794,-0.7939,-0.7939,-0.7939,0,-0.7328,-0.7358,-0.7412,-0.7474,-0.752,-0.7517,-0.7566,-0.7605,-0.7663,-0.7707,-0.7757,-0.7829,-0.7888,-0.7925,-0.7985,-0.802,-0.8022,-0.8035,-0.8033,-0.8039,-0.7956,-0.7939,-0.8033,-0.8033,-0.8033,-0.8033,-0.8033,-0.8033,-0.7386,-0.7459,-0.7476,-0.7567,-0.7598,-0.7663,-0.7692,-0.7731,-0.7766,-0.7846,-0.7896,-0.792,-0.7962,-0.8025,-0.8079,-0.8088,-0.811,-0.8124,-0.8133,-0.8055,-0.8045,-0.8036,-0.8019,-0.8129,-0.8129,-0.8212,-0.8213,-0.8213]},{"header":{"parameterUnit":"m.s-1","parameterCategory":1,"la1":30.2991,"la2":30.254,"lo1":-89.0895,"lo2":-89.0444,"dy":0.0017,"dx":0.0017,"nx":28,"ny":28,"refTime":"2023-08-29T03:00:00:Z","depth":0,"parameterNumber":3,"parameterNumberName":"V-component_of_WINDS"},"data":[0,0,0,0,0,0,0,0,0,0,0,0,0,0,0,0,0,0,0,0,0,0,0,0,0,0,0,0,0,0,0,0,0,0,0,0,0,0,0,0,0,0,0,0,0,0,0,0,0,0,0,0,0,0,0,0,0,0,-1.4933,-1.4932,0,-1.4847,-1.4846,-1.4845,-1.4933,-1.4937,-1.494,-1.4943,-1.4848,-1.4843,-1.4837,0,0,0,0,0,0,0,0,0,0,0,0,0,-1.5168,-1.5163,-1.4933,-1.4932,-1.4931,-1.4847,-1.4846,-1.4845,-1.4933,-1.4937,-1.4941,-1.4945,-1.485,-1.4843,-1.4836,0,0,0,0,0,0,0,0,0,0,0,0,0,-1.5072,-1.5162,-1.4934,-1.4965,-1.4967,-1.4848,-1.4846,-1.4845,-1.4932,-1.4937,-1.4942,-1.4947,-1.4852,-1.4844,-1.4835,-1.4679,0,0,-1.4809,-1.4805,0,0,0,0,0,0,0,0,-1.5077,-1.5063,-1.4961,-1.4963,-1.4965,-1.4907,-1.4894,-1.4789,-1.493,-1.4945,-1.4943,-1.4949,-1.4863,-1.4854,-1.4826,-1.4674,-1.467,-1.4808,-1.4803,-1.4799,-1.4797,0,0,0,0,0,0,0,-1.5084,-1.5068,-1.4899,-1.496,-1.4962,-1.4982,-1.4974,-1.4875,-1.4876,-1.4944,-1.495,-1.4939,-1.4865,-1.4834,-1.4824,-1.4669,-1.4809,-1.4801,-1.4796,-1.4792,-1.4382,-1.4377,0,0,0,0,0,0,-1.5088,-1.5073,-1.4902,-1.4897,-1.5035,-1.4973,-1.4964,-1.492,-1.4877,-1.4876,-1.4935,-1.4944,-1.4846,-1.4834,-1.4821,-1.4633,-1.4799,-1.4791,-1.4786,-1.4388,-1.4381,-1.4375,0,0,0,0,0,0,-1.5093,-1.5072,-1.4905,-1.4986,-1.4967,-1.4964,-1.4913,-1.4915,-1.4885,-1.487,-1.487,-1.4904,-1.485,-1.4834,-1.4714,-1.4631,-1.4787,-1.478,-1.4395,-1.4386,-1.4378,-1.4256,0,0,0,0,0,0,-1.5099,-1.5073,-1.5015,-1.4984,-1.4962,-1.48,-1.4908,-1.491,-1.4871,-1.4881,-1.4841,-1.4839,-1.4853,-1.4726,-1.4705,-1.4622,-1.4773,-1.4402,-1.4391,-1.4381,-1.4267,-1.4244,-1.4225,0,0,0,0,0,-1.5107,-1.4983,-1.5011,-1.499,-1.4889,-1.4795,-1.4782,-1.4802,-1.4864,-1.4804,-1.4795,-1.484,-1.4645,-1.4713,-1.469,-1.4603,-1.4407,-1.4394,-1.4381,-1.4277,-1.4249,-1.4225,0,0,0,0,0,0,-1.5001,-1.4979,-1.5011,-1.4873,-1.4836,-1.4811,-1.4736,-1.4772,-1.4715,-1.4727,-1.4753,-1.4743,-1.4615,-1.4598,-1.4675,-1.4448,-1.4535,-1.4517,-1.4464,-1.4437,-1.4416,-1.4421,-1.4766,0,0,0,0,0,-1.4962,-1.489,-1.4874,-1.4754,-1.4734,-1.4738,-1.4698,-1.4717,-1.4678,-1.4662,-1.4644,-1.4603,-1.4532,-1.4484,-1.4418,-1.4267,-1.4257,-1.4196,-1.4174,-1.4157,-1.4139,-1.4055,-1.4027,-1.4333,-1.4333,-1.4333,0,0,-1.488,-1.4859,-1.4811,-1.4732,-1.4705,-1.4627,-1.4724,-1.4638,-1.4579,-1.4648,-1.4533,-1.4519,-1.4475,-1.4338,-1.4276,-1.4319,-1.4054,-1.4141,-1.4127,-1.4119,-1.4039,-1.401,-1.3984,-1.4324,-1.4325,-1.4327,0,0,-1.4689,-1.4668,-1.4564,-1.4536,-1.4495,-1.4499,-1.4474,-1.4444,-1.4437,-1.4324,-1.4373,-1.4304,-1.4182,-1.4147,-1.4114,-1.3912,-1.3951,-1.389,-1.3776,-1.3694,-1.367,-1.3649,-1.3573,-1.3546,-1.3874,-1.3873,-1.3873,0,-1.4591,-1.4477,-1.4506,-1.4416,-1.4379,-1.4441,-1.4335,-1.4306,-1.4244,-1.4216,-1.4266,-1.4114,-1.4089,-1.3943,-1.3894,-1.3866,-1.3836,-1.3892,-1.3672,-1.3651,-1.3631,-1.3559,-1.3531,-1.3866,-1.3867,-1.3868,-1.3868,0,-1.4357,-1.4278,-1.4199,-1.414,-1.4095,-1.3997,-1.4009,-1.3959,-1.3983,-1.398,-1.3862,-1.3835,-1.3764,-1.3732,-1.3753,-1.3589,-1.3616,-1.3669,-1.3756,-1.3594,-1.3527,-1.35,-1.3855,-1.3858,-1.386,-1.3862,0,0,-1.4093,-1.4053,-1.4023,-1.3997,-1.3957,-1.3895,-1.38,-1.3733,-1.3688,-1.3644,-1.3563,-1.3459,-1.3508,-1.347,-1.3488,-1.3417,-1.3254,-1.3478,-1.3477,-1.3434,-1.3067,-1.3025,-1.2993,-1.3282,-1.3277,-1.3273,-1.307,0,-1.3899,-1.3735,-1.3759,-1.36,-1.3526,-1.3585,-1.3502,-1.3467,-1.3463,-1.3397,-1.3393,-1.3317,-1.3389,-1.3366,-1.3298,-1.3288,-1.318,-1.3304,-1.3202,-1.3198,-1.3207,-1.2958,-1.2913,-1.2722,-1.3044,-1.304,-1.3036,0,-1.3649,-1.3598,-1.3432,-1.3404,-1.3373,-1.3298,-1.3238,-1.3176,-1.3137,-1.3139,-1.3098,-1.3129,-1.3032,-1.3124,-1.2988,-1.3072,-1.3033,-1.3021,-1.3015,-1.3002,-1.3104,-1.2934,-1.2662,-1.2631,-1.2996,-1.2999,-1.3002,0,-1.3469,-1.3359,-1.3245,-1.3221,-1.3186,-1.3131,-1.3113,-1.3081,-1.3038,-1.2985,-1.2958,-1.2894,-1.2857,-1.2806,-1.2818,-1.2885,-1.2678,-1.2772,-1.2673,-1.2672,-1.2623,-1.2625,-1.2335,-1.2605,-1.2605,-1.2606,-1.2606,0,-1.3246,-1.3141,-1.3163,-1.3092,-1.2976,-1.3005,-1.2888,-1.2878,-1.2848,-1.2775,-1.2823,-1.2753,-1.2776,-1.2706,-1.2716,-1.26,-1.2584,-1.258,-1.2583,-1.2573,-1.2573,-1.2544,-1.2555,-1.2598,-1.26,-1.2601,-1.2602,0,-1.3023,-1.3034,-1.2913,-1.289,-1.2882,-1.2797,-1.2777,-1.2709,-1.2711,-1.2617,-1.2597,-1.2597,-1.2517,-1.2527,-1.2437,-1.2444,-1.2298,-1.2319,-1.2311,-1.2314,-1.2213,-1.2221,-1.1891,-1.1848,-1.2149,-1.2146,-1.2144,0,-1.2878,-1.2799,-1.2768,-1.2724,-1.2703,-1.263,-1.2588,-1.2613,-1.2566,-1.2517,-1.2455,-1.2381,-1.2322,-1.2192,-1.2182,-1.2114,-1.2131,-1.202,-1.212,-1.2112,-1.2124,-1.2126,-1.2117,-1.1998,-1.1995,-1.1992,-1.199,0,-1.2618,-1.2628,-1.2566,-1.2505,-1.2454,-1.2407,-1.2365,-1.2325,-1.2346,-1.2291,-1.2212,-1.2166,-1.2076,-1.2,-1.1936,-1.1916,-1.1954,-1.196,-1.1932,-1.1919,-1.1915,-1.1912,-1.2252,-1.1966,-1.1968,-1.197,-1.1971,-1.1972,-1.2427,-1.2358,-1.2326,-1.2255,-1.2227,-1.2186,-1.2121,-1.2116,-1.205,-1.198,-1.1999,-1.1908,-1.1871,-1.1789,-1.1762,-1.169,-1.1729,-1.1691,-1.168,-1.1669,-1.1655,-1.1932,-1.1679,-1.1679,-1.168,-1.1681,-1.1681,0,-1.2166,-1.2149,-1.2084,-1.2024,-1.1967,-1.2014,-1.197,-1.1918,-1.1838,-1.1802,-1.1744,-1.1651,-1.1578,-1.1564,-1.1494,-1.1439,-1.1454,-1.1419,-1.142,-1.1414,-1.1626,-1.1654,-1.1407,-1.1407,-1.1407,-1.1407,-1.1407,-1.1407,-1.2023,-1.191,-1.1915,-1.1787,-1.1771,-1.1683,-1.1654,-1.1616,-1.1587,-1.1482,-1.1422,-1.1415,-1.1386,-1.1315,-1.1249,-1.1247,-1.1216,-1.1173,-1.1176,-1.1373,-1.14,-1.1426,-1.1453,-1.1167,-1.1167,-1.0971,-1.0969,-1.0968]}]]